GEFSMA_prec_meanprecacc_228.txt.gz
Total_Precipitation_Accumulation
0.61 0.56 0.55 0.54 0.50 0.49 0.49 0.52 0.53 0.52 0.50 0.47 0.42 0.39 0.39 0.41 0.37 0.31 0.26 0.25 0.23 0.26 0.38 0.59 0.89 1.21 1.43 1.51 1.49 1.32 1.23 1.09 0.92 0.83 0.79 0.85 0.85 0.84 0.87 0.97 0.94 0.84 0.82
0.58 0.51 0.48 0.47 0.44 0.40 0.37 0.38 0.38 0.40 0.41 0.39 0.35 0.31 0.32 0.36 0.36 0.34 0.33 0.34 0.29 0.27 0.31 0.43 0.65 0.97 1.32 1.56 1.63 1.56 1.40 1.29 1.12 0.95 0.87 0.86 0.90 0.88 0.87 0.92 1.00 0.97 0.86
0.59 0.57 0.51 0.47 0.45 0.44 0.44 0.42 0.41 0.40 0.37 0.34 0.31 0.29 0.28 0.28 0.32 0.34 0.36 0.37 0.38 0.35 0.34 0.40 0.53 0.77 1.16 1.53 1.73 1.83 1.68 1.47 1.33 1.18 0.98 0.86 0.88 0.92 0.91 0.94 1.02 1.08 1.04
0.59 0.59 0.57 0.53 0.51 0.52 0.53 0.52 0.47 0.44 0.41 0.37 0.34 0.31 0.30 0.28 0.26 0.29 0.34 0.35 0.36 0.36 0.35 0.38 0.49 0.70 0.97 1.33 1.66 1.93 2.01 1.80 1.65 1.55 1.33 1.09 0.93 0.94 0.97 0.98 1.04 1.12 1.19
0.58 0.57 0.56 0.58 0.60 0.64 0.62 0.58 0.53 0.47 0.45 0.41 0.39 0.37 0.34 0.31 0.30 0.30 0.31 0.35 0.37 0.35 0.35 0.37 0.43 0.55 0.75 1.08 1.54 1.95 2.31 2.30 2.09 1.93 1.74 1.51 1.24 1.06 1.07 1.06 1.09 1.17 1.27
0.64 0.62 0.60 0.60 0.65 0.69 0.67 0.64 0.57 0.51 0.47 0.46 0.47 0.44 0.38 0.33 0.31 0.31 0.30 0.32 0.35 0.36 0.36 0.40 0.44 0.43 0.49 0.67 1.02 1.52 2.00 2.36 2.39 2.26 2.13 1.92 1.69 1.46 1.31 1.24 1.20 1.27 1.38
0.72 0.72 0.66 0.67 0.65 0.67 0.64 0.63 0.63 0.61 0.56 0.52 0.57 0.57 0.50 0.41 0.34 0.30 0.31 0.33 0.35 0.40 0.47 0.52 0.58 0.55 0.48 0.52 0.59 0.81 1.31 1.94 2.33 2.46 2.44 2.38 2.16 1.88 1.65 1.49 1.42 1.44 1.51
0.75 0.81 0.75 0.70 0.68 0.66 0.68 0.69 0.67 0.68 0.68 0.63 0.63 0.68 0.63 0.55 0.44 0.33 0.32 0.33 0.37 0.45 0.57 0.62 0.68 0.70 0.63 0.54 0.45 0.50 0.70 1.20 1.89 2.41 2.55 2.54 2.56 2.38 2.02 1.76 1.64 1.67 1.73
0.69 0.77 0.81 0.75 0.71 0.69 0.67 0.65 0.65 0.64 0.68 0.63 0.59 0.78 0.83 0.61 0.40 0.30 0.27 0.29 0.30 0.33 0.37 0.45 0.53 0.59 0.66 0.66 0.57 0.50 0.53 0.74 1.27 2.02 2.56 2.66 2.69 2.79 2.57 2.13 1.86 1.78 1.83
0.74 0.71 0.79 0.81 0.78 0.76 0.72 0.66 0.64 0.64 0.70 0.72 0.63 0.59 0.63 0.61 0.61 0.42 0.27 0.25 0.25 0.26 0.25 0.28 0.33 0.40 0.51 0.63 0.70 0.67 0.63 0.64 0.93 1.45 2.16 2.74 2.87 3.01 3.12 2.75 2.27 1.99 1.90
0.87 0.78 0.75 0.80 0.81 0.80 0.79 0.74 0.69 0.70 0.72 0.76 0.73 0.63 0.56 0.49 0.51 0.59 0.41 0.29 0.28 0.26 0.26 0.26 0.29 0.30 0.35 0.46 0.57 0.68 0.75 0.72 0.87 1.17 1.59 2.32 2.99 3.24 3.42 3.29 2.77 2.28 2.02
0.97 0.94 0.81 0.78 0.80 0.81 0.82 0.79 0.73 0.72 0.74 0.75 0.73 0.70 0.70 0.67 0.55 0.58 0.53 0.37 0.33 0.31 0.32 0.33 0.33 0.32 0.33 0.37 0.45 0.60 0.69 0.74 0.81 0.95 1.13 1.58 2.41 3.13 3.41 3.36 3.06 2.66 2.25
1.07 0.97 0.92 0.83 0.81 0.80 0.80 0.81 0.82 0.76 0.72 0.77 0.79 0.74 0.69 0.65 0.59 0.65 0.72 0.60 0.48 0.39 0.38 0.38 0.36 0.36 0.37 0.38 0.43 0.49 0.55 0.64 0.74 0.82 0.85 0.96 1.38 2.28 3.17 3.51 3.28 2.91 2.61
1.09 0.98 0.94 0.88 0.83 0.84 0.86 0.85 0.83 0.81 0.76 0.74 0.73 0.73 0.70 0.65 0.66 0.71 0.81 0.88 0.79 0.54 0.44 0.41 0.38 0.37 0.39 0.43 0.46 0.49 0.46 0.54 0.62 0.72 0.80 0.85 0.95 1.33 2.17 3.18 3.79 3.50 2.99
1.20 1.13 1.05 0.99 0.92 0.90 0.90 0.90 0.87 0.82 0.81 0.82 0.79 0.76 0.76 0.69 0.69 0.71 0.76 0.90 1.08 0.90 0.50 0.34 0.35 0.38 0.38 0.44 0.52 0.50 0.46 0.50 0.57 0.65 0.72 0.80 0.88 1.00 1.33 2.02 3.05 3.79 3.70
1.31 1.32 1.26 1.19 1.10 1.05 1.02 0.99 0.95 0.86 0.85 0.85 0.86 0.84 0.82 0.78 0.75 0.76 0.79 0.79 0.86 0.95 0.72 0.36 0.33 0.37 0.43 0.45 0.54 0.52 0.52 0.60 0.61 0.63 0.68 0.71 0.79 0.94 1.09 1.38 2.01 3.00 3.66
1.36 1.42 1.46 1.41 1.32 1.23 1.19 1.17 1.12 1.04 0.99 0.91 0.91 0.91 0.87 0.83 0.83 0.79 0.79 0.77 0.74 0.82 0.83 0.44 0.33 0.39 0.49 0.55 0.58 0.58 0.60 0.60 0.58 0.62 0.67 0.72 0.76 0.87 1.02 1.21 1.48 2.11 3.04
1.34 1.39 1.56 1.58 1.52 1.41 1.32 1.34 1.34 1.25 1.20 1.12 1.05 1.03 0.99 0.97 0.99 0.93 0.88 0.82 0.75 0.73 0.83 0.67 0.42 0.41 0.51 0.61 0.69 0.71 0.69 0.67 0.63 0.71 0.74 0.75 0.78 0.83 0.96 1.13 1.32 1.62 2.23
1.30 1.40 1.56 1.70 1.65 1.61 1.52 1.40 1.45 1.56 1.51 1.42 1.34 1.31 1.24 1.19 1.21 1.15 1.07 0.95 0.83 0.76 0.77 0.78 0.58 0.48 0.54 0.66 0.83 0.85 0.82 0.78 0.71 0.78 0.82 0.82 0.83 0.83 0.89 1.04 1.21 1.39 1.65
1.25 1.43 1.54 1.71 1.78 1.84 1.91 1.80 1.70 1.62 1.60 1.59 1.55 1.52 1.54 1.50 1.45 1.39 1.35 1.15 0.97 0.91 0.87 0.88 0.76 0.62 0.62 0.71 0.96 1.07 1.04 0.97 0.90 0.82 0.84 0.85 0.88 0.89 0.88 0.90 0.99 1.13 1.37
1.27 1.40 1.51 1.63 1.69 1.89 2.34 2.44 2.03 1.54 1.39 1.40 1.37 1.35 1.44 1.58 1.64 1.65 1.63 1.45 1.29 1.26 1.18 1.14 1.01 0.85 0.78 0.87 1.06 1.15 1.22 1.17 1.17 1.00 0.85 0.80 0.81 0.81 0.82 0.87 0.94 1.02 1.19
1.26 1.38 1.43 1.45 1.50 1.70 2.24 2.37 1.87 1.43 1.25 1.24 1.24 1.18 1.20 1.33 1.41 1.47 1.58 1.60 1.62 1.68 1.62 1.46 1.28 1.11 0.92 0.88 1.01 1.28 1.41 1.50 1.52 1.22 1.05 0.97 0.86 0.87 0.87 0.85 0.88 0.92 1.07
1.19 1.24 1.28 1.26 1.27 1.46 1.91 1.98 1.70 1.38 1.21 1.09 1.08 1.07 1.07 1.10 1.20 1.12 1.23 1.37 1.48 1.64 1.75 1.71 1.63 1.29 1.05 0.97 1.14 1.40 1.51 1.59 1.51 1.35 1.34 1.41 1.17 1.04 0.97 0.97 0.98 0.91 1.01
1.13 1.11 1.11 1.10 1.10 1.23 1.68 1.85 1.70 1.39 1.28 1.18 1.11 1.01 0.96 0.97 1.10 1.16 1.20 1.20 1.17 1.29 1.53 1.67 1.74 1.52 1.29 1.25 1.46 1.70 1.84 1.87 1.72 1.61 1.57 1.70 1.42 1.22 1.14 1.09 1.06 0.96 0.96
0.99 0.98 0.97 1.03 1.00 1.06 1.51 1.90 1.83 1.45 1.43 1.34 1.24 1.16 1.06 0.94 1.16 1.28 1.20 1.13 1.03 1.08 1.24 1.50 1.67 1.67 1.65 1.69 1.84 2.09 2.22 2.27 2.15 1.85 1.71 1.77 1.62 1.41 1.36 1.36 1.25 1.12 0.99
0.85 0.88 0.85 0.90 0.90 0.96 1.29 1.82 1.95 1.49 1.41 1.33 1.26 1.23 1.30 1.22 1.29 1.25 1.11 1.13 1.14 1.02 0.99 1.08 1.16 1.25 1.27 1.31 1.59 1.82 1.97 2.14 2.12 2.11 1.82 1.75 1.79 1.72 1.85 1.60 1.34 1.10 0.97

GEFSMA_prec_meanprecacc_234.txt.gz
Total_Precipitation_Accumulation
0.62 0.57 0.56 0.55 0.51 0.50 0.50 0.52 0.53 0.52 0.50 0.47 0.42 0.39 0.39 0.41 0.37 0.31 0.26 0.25 0.24 0.26 0.39 0.60 0.90 1.22 1.44 1.52 1.51 1.34 1.24 1.11 0.94 0.85 0.81 0.87 0.87 0.85 0.88 0.99 0.96 0.86 0.84
0.58 0.52 0.49 0.49 0.45 0.40 0.38 0.38 0.38 0.40 0.41 0.39 0.35 0.31 0.32 0.36 0.36 0.34 0.33 0.34 0.29 0.27 0.31 0.44 0.66 0.97 1.33 1.56 1.64 1.57 1.41 1.31 1.14 0.97 0.89 0.89 0.92 0.91 0.89 0.94 1.02 0.99 0.89
0.60 0.57 0.52 0.48 0.46 0.45 0.45 0.42 0.41 0.40 0.37 0.34 0.31 0.29 0.28 0.28 0.32 0.34 0.36 0.37 0.38 0.35 0.34 0.40 0.53 0.77 1.16 1.53 1.73 1.84 1.68 1.48 1.35 1.20 1.00 0.89 0.91 0.94 0.93 0.96 1.03 1.10 1.06
0.60 0.59 0.57 0.53 0.53 0.54 0.54 0.53 0.47 0.45 0.41 0.37 0.34 0.31 0.30 0.28 0.26 0.29 0.34 0.35 0.36 0.36 0.35 0.38 0.50 0.70 0.98 1.33 1.67 1.94 2.02 1.80 1.66 1.56 1.35 1.11 0.95 0.96 1.00 1.01 1.07 1.15 1.22
0.60 0.59 0.58 0.60 0.62 0.66 0.64 0.59 0.55 0.48 0.45 0.42 0.39 0.37 0.34 0.31 0.30 0.30 0.31 0.35 0.37 0.35 0.35 0.37 0.43 0.55 0.75 1.09 1.55 1.95 2.31 2.31 2.10 1.94 1.75 1.53 1.26 1.09 1.09 1.08 1.12 1.20 1.30
0.65 0.63 0.62 0.63 0.68 0.71 0.69 0.66 0.59 0.53 0.48 0.47 0.47 0.45 0.38 0.33 0.31 0.31 0.30 0.32 0.35 0.36 0.36 0.40 0.44 0.43 0.49 0.67 1.02 1.52 2.00 2.36 2.39 2.27 2.14 1.94 1.71 1.48 1.34 1.27 1.23 1.30 1.42
0.74 0.73 0.67 0.67 0.66 0.68 0.66 0.64 0.64 0.63 0.58 0.54 0.58 0.58 0.51 0.41 0.35 0.31 0.31 0.33 0.35 0.40 0.47 0.52 0.58 0.55 0.48 0.52 0.59 0.81 1.31 1.94 2.33 2.47 2.45 2.39 2.18 1.91 1.68 1.51 1.45 1.48 1.54
0.76 0.82 0.76 0.70 0.68 0.66 0.69 0.70 0.69 0.69 0.70 0.65 0.65 0.70 0.63 0.56 0.45 0.34 0.32 0.33 0.37 0.45 0.57 0.62 0.68 0.70 0.63 0.54 0.45 0.50 0.70 1.21 1.90 2.42 2.57 2.56 2.58 2.40 2.05 1.79 1.67 1.70 1.77
0.70 0.78 0.83 0.77 0.72 0.69 0.67 0.66 0.65 0.66 0.69 0.64 0.60 0.79 0.84 0.61 0.41 0.31 0.29 0.30 0.31 0.33 0.37 0.45 0.53 0.59 0.66 0.66 0.57 0.50 0.53 0.74 1.28 2.03 2.57 2.68 2.71 2.81 2.60 2.17 1.90 1.82 1.87
0.75 0.72 0.80 0.82 0.80 0.77 0.72 0.67 0.65 0.64 0.70 0.73 0.63 0.59 0.63 0.62 0.61 0.43 0.28 0.26 0.26 0.27 0.26 0.28 0.33 0.40 0.51 0.63 0.70 0.67 0.63 0.65 0.94 1.46 2.17 2.76 2.90 3.04 3.16 2.79 2.32 2.05 1.95
0.88 0.79 0.76 0.80 0.82 0.81 0.80 0.74 0.69 0.70 0.73 0.76 0.74 0.63 0.56 0.49 0.51 0.60 0.42 0.30 0.29 0.27 0.26 0.27 0.29 0.30 0.35 0.46 0.57 0.68 0.75 0.72 0.88 1.17 1.60 2.34 3.01 3.27 3.45 3.33 2.82 2.34 2.07
0.97 0.94 0.82 0.79 0.80 0.81 0.82 0.79 0.73 0.72 0.74 0.75 0.73 0.70 0.71 0.67 0.55 0.58 0.53 0.38 0.35 0.32 0.32 0.33 0.33 0.32 0.33 0.37 0.45 0.60 0.69 0.75 0.81 0.95 1.14 1.59 2.42 3.15 3.44 3.39 3.10 2.69 2.28
1.08 0.98 0.93 0.84 0.81 0.80 0.80 0.81 0.82 0.76 0.72 0.77 0.79 0.75 0.69 0.65 0.59 0.65 0.72 0.60 0.49 0.40 0.39 0.38 0.36 0.36 0.37 0.38 0.43 0.49 0.55 0.65 0.74 0.82 0.86 0.97 1.39 2.30 3.18 3.52 3.30 2.93 2.63
1.10 0.98 0.95 0.89 0.83 0.84 0.86 0.85 0.83 0.81 0.76 0.74 0.73 0.73 0.71 0.65 0.66 0.72 0.81 0.89 0.80 0.54 0.44 0.41 0.38 0.37 0.39 0.43 0.46 0.50 0.46 0.54 0.63 0.73 0.81 0.86 0.96 1.35 2.18 3.20 3.81 3.52 3.02
1.21 1.13 1.05 1.00 0.93 0.91 0.90 0.90 0.87 0.82 0.81 0.82 0.79 0.76 0.76 0.70 0.69 0.71 0.77 0.91 1.09 0.90 0.50 0.34 0.35 0.38 0.38 0.44 0.52 0.50 0.46 0.51 0.58 0.66 0.73 0.82 0.89 1.02 1.35 2.04 3.06 3.81 3.72
1.31 1.32 1.26 1.20 1.10 1.05 1.03 1.00 0.95 0.86 0.85 0.85 0.87 0.84 0.82 0.79 0.75 0.76 0.79 0.80 0.87 0.96 0.73 0.36 0.33 0.37 0.43 0.45 0.54 0.52 0.53 0.60 0.61 0.64 0.69 0.73 0.81 0.95 1.10 1.40 2.02 3.02 3.68
1.36 1.42 1.46 1.41 1.32 1.23 1.19 1.18 1.12 1.04 0.99 0.92 0.91 0.91 0.88 0.84 0.84 0.79 0.80 0.77 0.74 0.82 0.84 0.44 0.34 0.39 0.50 0.55 0.59 0.59 0.61 0.60 0.59 0.63 0.69 0.74 0.77 0.88 1.03 1.22 1.50 2.13 3.06
1.34 1.39 1.56 1.58 1.52 1.41 1.33 1.34 1.34 1.26 1.21 1.12 1.05 1.03 0.99 0.97 0.99 0.93 0.88 0.82 0.75 0.73 0.84 0.68 0.42 0.42 0.52 0.62 0.70 0.72 0.71 0.68 0.63 0.72 0.75 0.77 0.79 0.84 0.98 1.15 1.34 1.64 2.26
1.31 1.40 1.56 1.70 1.65 1.61 1.52 1.40 1.46 1.56 1.52 1.43 1.34 1.31 1.24 1.19 1.21 1.15 1.08 0.95 0.83 0.76 0.78 0.79 0.59 0.48 0.54 0.67 0.84 0.86 0.84 0.80 0.72 0.79 0.82 0.83 0.83 0.84 0.91 1.05 1.23 1.42 1.68
1.25 1.43 1.54 1.71 1.79 1.84 1.91 1.80 1.71 1.63 1.61 1.59 1.55 1.52 1.54 1.50 1.46 1.39 1.35 1.15 0.98 0.92 0.87 0.89 0.76 0.63 0.63 0.72 0.97 1.07 1.05 0.98 0.91 0.83 0.85 0.86 0.89 0.89 0.89 0.92 1.02 1.17 1.40
1.27 1.40 1.51 1.63 1.69 1.89 2.34 2.45 2.03 1.54 1.39 1.40 1.38 1.36 1.44 1.58 1.65 1.65 1.64 1.46 1.30 1.27 1.19 1.15 1.02 0.86 0.79 0.88 1.07 1.15 1.22 1.17 1.17 1.01 0.86 0.80 0.81 0.82 0.83 0.88 0.96 1.06 1.23
1.26 1.38 1.43 1.45 1.50 1.71 2.24 2.37 1.88 1.44 1.25 1.24 1.24 1.19 1.20 1.34 1.41 1.47 1.59 1.61 1.63 1.69 1.63 1.48 1.29 1.12 0.93 0.88 1.01 1.29 1.41 1.51 1.53 1.23 1.06 0.98 0.86 0.87 0.88 0.87 0.91 0.94 1.11
1.19 1.24 1.28 1.26 1.27 1.46 1.91 1.99 1.70 1.39 1.21 1.09 1.08 1.07 1.07 1.10 1.20 1.13 1.24 1.38 1.48 1.65 1.76 1.73 1.64 1.31 1.06 0.98 1.16 1.41 1.52 1.60 1.52 1.36 1.35 1.42 1.18 1.04 0.98 0.98 1.00 0.94 1.03
1.13 1.11 1.11 1.10 1.10 1.23 1.68 1.86 1.71 1.39 1.29 1.18 1.11 1.01 0.96 0.97 1.11 1.17 1.21 1.21 1.17 1.29 1.53 1.68 1.75 1.53 1.30 1.26 1.48 1.72 1.86 1.88 1.73 1.62 1.58 1.71 1.43 1.23 1.15 1.10 1.07 0.98 0.98
0.99 0.99 0.97 1.03 1.00 1.06 1.51 1.91 1.84 1.46 1.44 1.35 1.24 1.16 1.06 0.94 1.16 1.28 1.20 1.13 1.03 1.08 1.24 1.51 1.67 1.68 1.66 1.70 1.85 2.10 2.23 2.28 2.16 1.85 1.71 1.79 1.63 1.42 1.37 1.37 1.27 1.13 1.00
0.85 0.88 0.85 0.90 0.91 0.96 1.30 1.83 1.96 1.50 1.42 1.33 1.26 1.23 1.31 1.23 1.29 1.25 1.11 1.13 1.15 1.02 0.99 1.08 1.16 1.26 1.27 1.32 1.59 1.82 1.99 2.17 2.14 2.13 1.84 1.77 1.80 1.73 1.88 1.62 1.35 1.11 0.98

GEFSMA_prec_meanprecacc_240.txt.gz
Total_Precipitation_Accumulation
0.64 0.59 0.58 0.57 0.52 0.50 0.50 0.52 0.53 0.52 0.50 0.47 0.42 0.39 0.39 0.41 0.37 0.31 0.26 0.25 0.24 0.27 0.39 0.60 0.90 1.22 1.44 1.53 1.51 1.35 1.25 1.11 0.95 0.86 0.83 0.88 0.89 0.87 0.91 1.02 0.98 0.87 0.85
0.59 0.54 0.50 0.50 0.46 0.41 0.38 0.39 0.39 0.40 0.41 0.39 0.35 0.31 0.32 0.36 0.36 0.34 0.33 0.34 0.29 0.27 0.32 0.44 0.66 0.97 1.33 1.57 1.64 1.58 1.42 1.31 1.15 0.98 0.90 0.90 0.94 0.93 0.91 0.96 1.04 1.00 0.90
0.61 0.58 0.53 0.49 0.47 0.46 0.45 0.43 0.42 0.40 0.37 0.34 0.31 0.29 0.28 0.28 0.32 0.34 0.36 0.37 0.38 0.35 0.34 0.40 0.53 0.78 1.16 1.53 1.73 1.84 1.69 1.49 1.35 1.20 1.00 0.89 0.92 0.96 0.95 0.98 1.05 1.12 1.08
0.61 0.60 0.58 0.54 0.53 0.54 0.55 0.54 0.48 0.45 0.41 0.37 0.34 0.32 0.30 0.28 0.26 0.29 0.34 0.35 0.36 0.36 0.35 0.38 0.50 0.70 0.98 1.33 1.67 1.94 2.02 1.81 1.66 1.57 1.36 1.12 0.96 0.97 1.01 1.02 1.08 1.17 1.24
0.62 0.60 0.59 0.60 0.63 0.66 0.65 0.61 0.56 0.49 0.46 0.42 0.40 0.37 0.34 0.31 0.30 0.30 0.31 0.35 0.37 0.35 0.35 0.37 0.43 0.55 0.75 1.09 1.55 1.96 2.31 2.31 2.10 1.95 1.76 1.54 1.27 1.10 1.11 1.10 1.13 1.22 1.33
0.67 0.65 0.63 0.64 0.69 0.72 0.70 0.67 0.61 0.56 0.52 0.50 0.49 0.46 0.39 0.33 0.31 0.31 0.30 0.32 0.35 0.36 0.36 0.40 0.44 0.43 0.49 0.68 1.02 1.52 2.01 2.37 2.40 2.27 2.15 1.95 1.72 1.49 1.35 1.29 1.25 1.33 1.45
0.75 0.74 0.68 0.69 0.68 0.69 0.67 0.65 0.66 0.65 0.61 0.59 0.63 0.61 0.52 0.42 0.35 0.31 0.31 0.33 0.35 0.40 0.47 0.52 0.58 0.55 0.48 0.52 0.59 0.81 1.31 1.95 2.34 2.48 2.46 2.41 2.19 1.93 1.70 1.54 1.48 1.50 1.57
0.78 0.84 0.77 0.71 0.70 0.68 0.70 0.71 0.69 0.70 0.71 0.66 0.67 0.72 0.66 0.57 0.45 0.34 0.32 0.33 0.37 0.45 0.57 0.62 0.68 0.70 0.63 0.54 0.45 0.50 0.70 1.21 1.90 2.43 2.58 2.57 2.60 2.42 2.08 1.82 1.70 1.73 1.79
0.72 0.80 0.84 0.78 0.73 0.70 0.68 0.67 0.66 0.66 0.69 0.64 0.61 0.80 0.86 0.63 0.42 0.32 0.29 0.30 0.31 0.33 0.37 0.45 0.53 0.59 0.66 0.66 0.57 0.50 0.53 0.75 1.28 2.04 2.58 2.69 2.73 2.83 2.63 2.19 1.92 1.85 1.90
0.77 0.73 0.81 0.83 0.81 0.78 0.73 0.67 0.65 0.65 0.71 0.74 0.64 0.60 0.64 0.63 0.63 0.44 0.29 0.27 0.27 0.27 0.26 0.28 0.34 0.40 0.51 0.63 0.70 0.67 0.63 0.65 0.94 1.47 2.18 2.77 2.91 3.05 3.18 2.82 2.35 2.08 1.98
0.89 0.80 0.77 0.81 0.82 0.81 0.80 0.74 0.70 0.71 0.73 0.77 0.74 0.64 0.57 0.50 0.52 0.61 0.43 0.31 0.30 0.27 0.27 0.27 0.29 0.30 0.35 0.46 0.58 0.68 0.75 0.72 0.88 1.18 1.61 2.35 3.02 3.28 3.47 3.35 2.84 2.36 2.10
0.98 0.95 0.82 0.79 0.80 0.81 0.82 0.80 0.74 0.72 0.74 0.75 0.74 0.70 0.71 0.67 0.55 0.58 0.54 0.38 0.35 0.32 0.33 0.33 0.33 0.32 0.33 0.37 0.45 0.61 0.70 0.75 0.81 0.96 1.14 1.60 2.43 3.17 3.45 3.41 3.12 2.71 2.31
1.08 0.98 0.93 0.84 0.82 0.80 0.80 0.82 0.82 0.76 0.72 0.77 0.79 0.75 0.70 0.66 0.60 0.65 0.73 0.60 0.49 0.40 0.39 0.38 0.36 0.36 0.37 0.39 0.43 0.50 0.55 0.65 0.75 0.83 0.86 0.98 1.40 2.31 3.20 3.54 3.31 2.95 2.66
1.10 0.99 0.95 0.89 0.83 0.84 0.86 0.85 0.83 0.81 0.76 0.74 0.73 0.73 0.71 0.66 0.66 0.72 0.82 0.89 0.80 0.55 0.44 0.41 0.38 0.38 0.40 0.43 0.46 0.50 0.46 0.54 0.63 0.74 0.82 0.87 0.97 1.36 2.20 3.21 3.82 3.54 3.04
1.21 1.14 1.05 1.00 0.93 0.91 0.90 0.90 0.87 0.82 0.82 0.82 0.79 0.76 0.76 0.70 0.69 0.72 0.78 0.92 1.10 0.92 0.51 0.34 0.35 0.38 0.39 0.45 0.53 0.51 0.47 0.52 0.58 0.66 0.74 0.83 0.91 1.03 1.36 2.06 3.08 3.83 3.74
1.31 1.32 1.26 1.20 1.10 1.05 1.03 1.00 0.95 0.86 0.85 0.85 0.87 0.84 0.82 0.79 0.76 0.77 0.80 0.81 0.88 0.98 0.73 0.37 0.33 0.38 0.44 0.46 0.54 0.53 0.53 0.61 0.62 0.64 0.69 0.74 0.83 0.97 1.12 1.41 2.04 3.04 3.70
1.37 1.42 1.46 1.41 1.32 1.23 1.19 1.18 1.12 1.04 1.00 0.92 0.91 0.91 0.88 0.84 0.84 0.80 0.80 0.78 0.75 0.84 0.85 0.45 0.34 0.40 0.51 0.55 0.59 0.60 0.61 0.61 0.59 0.63 0.69 0.75 0.79 0.90 1.05 1.24 1.52 2.15 3.08
1.34 1.39 1.56 1.58 1.52 1.41 1.33 1.34 1.34 1.26 1.21 1.12 1.05 1.03 0.99 0.97 0.99 0.93 0.89 0.83 0.76 0.74 0.85 0.69 0.43 0.43 0.52 0.63 0.71 0.73 0.71 0.68 0.64 0.72 0.75 0.77 0.80 0.85 0.99 1.16 1.35 1.66 2.28
1.31 1.40 1.56 1.70 1.66 1.61 1.52 1.40 1.46 1.56 1.52 1.43 1.34 1.31 1.25 1.20 1.21 1.15 1.08 0.96 0.84 0.77 0.79 0.80 0.60 0.49 0.55 0.68 0.84 0.87 0.84 0.80 0.72 0.79 0.82 0.83 0.84 0.85 0.91 1.06 1.25 1.44 1.71
1.26 1.43 1.54 1.71 1.79 1.84 1.91 1.81 1.71 1.63 1.61 1.59 1.55 1.52 1.54 1.51 1.46 1.40 1.36 1.16 0.99 0.93 0.88 0.90 0.78 0.64 0.63 0.72 0.97 1.08 1.06 0.98 0.91 0.83 0.85 0.86 0.89 0.90 0.89 0.93 1.03 1.18 1.43
1.27 1.40 1.51 1.63 1.69 1.89 2.34 2.45 2.03 1.54 1.40 1.41 1.38 1.36 1.45 1.58 1.65 1.66 1.65 1.47 1.31 1.28 1.20 1.17 1.04 0.87 0.79 0.88 1.07 1.16 1.23 1.18 1.18 1.01 0.86 0.81 0.82 0.82 0.83 0.89 0.97 1.07 1.25
1.26 1.38 1.43 1.45 1.50 1.71 2.24 2.38 1.88 1.44 1.26 1.24 1.24 1.19 1.20 1.34 1.42 1.48 1.60 1.62 1.64 1.71 1.65 1.50 1.31 1.13 0.94 0.89 1.02 1.30 1.42 1.51 1.53 1.23 1.06 0.98 0.87 0.88 0.88 0.87 0.92 0.96 1.13
1.19 1.24 1.28 1.26 1.27 1.46 1.91 1.99 1.71 1.39 1.21 1.10 1.08 1.08 1.07 1.11 1.21 1.14 1.25 1.39 1.49 1.66 1.78 1.74 1.66 1.32 1.07 0.99 1.17 1.42 1.53 1.61 1.52 1.36 1.35 1.42 1.18 1.05 0.98 0.98 1.01 0.96 1.05
1.14 1.11 1.11 1.10 1.10 1.23 1.69 1.86 1.71 1.39 1.29 1.18 1.11 1.01 0.96 0.97 1.12 1.18 1.21 1.22 1.18 1.30 1.54 1.68 1.76 1.54 1.31 1.27 1.48 1.72 1.86 1.89 1.73 1.62 1.59 1.72 1.43 1.23 1.15 1.10 1.08 0.99 1.00
0.99 0.99 0.97 1.03 1.00 1.06 1.51 1.92 1.84 1.46 1.44 1.35 1.24 1.16 1.06 0.94 1.17 1.29 1.21 1.14 1.04 1.08 1.24 1.51 1.67 1.69 1.66 1.71 1.86 2.10 2.24 2.29 2.16 1.85 1.72 1.80 1.64 1.43 1.37 1.37 1.27 1.14 1.01
0.86 0.88 0.85 0.90 0.91 0.96 1.30 1.83 1.96 1.51 1.42 1.34 1.26 1.24 1.31 1.23 1.30 1.26 1.12 1.14 1.15 1.02 1.00 1.08 1.17 1.26 1.27 1.32 1.60 1.83 2.00 2.19 2.16 2.15 1.84 1.78 1.81 1.75 1.90 1.63 1.36 1.12 0.99

GEFSMA_prec_meanprecacc_246.txt.gz
Total_Precipitation_Accumulation
0.64 0.60 0.60 0.59 0.54 0.52 0.52 0.53 0.54 0.52 0.50 0.47 0.42 0.39 0.39 0.41 0.37 0.31 0.27 0.25 0.24 0.27 0.39 0.61 0.91 1.22 1.45 1.53 1.52 1.36 1.26 1.12 0.96 0.88 0.84 0.90 0.90 0.88 0.93 1.05 1.02 0.91 0.88
0.60 0.55 0.52 0.52 0.47 0.42 0.40 0.39 0.39 0.40 0.41 0.39 0.35 0.31 0.32 0.36 0.36 0.34 0.33 0.34 0.29 0.28 0.32 0.45 0.67 0.98 1.33 1.57 1.65 1.58 1.43 1.32 1.16 0.99 0.92 0.91 0.95 0.94 0.93 0.98 1.06 1.03 0.93
0.62 0.60 0.55 0.51 0.49 0.47 0.46 0.43 0.42 0.40 0.37 0.35 0.32 0.29 0.28 0.28 0.32 0.34 0.36 0.37 0.38 0.36 0.34 0.41 0.54 0.78 1.17 1.54 1.74 1.85 1.70 1.50 1.36 1.21 1.01 0.91 0.93 0.97 0.96 1.00 1.07 1.14 1.11
0.63 0.62 0.59 0.55 0.55 0.55 0.56 0.54 0.48 0.45 0.41 0.37 0.34 0.32 0.30 0.28 0.26 0.29 0.34 0.35 0.36 0.36 0.35 0.38 0.50 0.70 0.98 1.34 1.67 1.95 2.03 1.82 1.67 1.58 1.37 1.13 0.98 0.99 1.03 1.04 1.10 1.18 1.26
0.64 0.61 0.60 0.61 0.64 0.67 0.66 0.61 0.57 0.50 0.47 0.43 0.40 0.38 0.34 0.31 0.30 0.30 0.31 0.35 0.37 0.35 0.35 0.37 0.43 0.55 0.75 1.09 1.55 1.96 2.32 2.32 2.11 1.96 1.77 1.55 1.29 1.12 1.13 1.12 1.16 1.24 1.35
0.68 0.66 0.64 0.65 0.70 0.73 0.72 0.68 0.61 0.56 0.53 0.51 0.52 0.49 0.41 0.34 0.32 0.31 0.30 0.32 0.35 0.36 0.36 0.40 0.44 0.43 0.49 0.68 1.02 1.52 2.01 2.37 2.41 2.28 2.16 1.96 1.74 1.51 1.37 1.31 1.27 1.35 1.47
0.77 0.76 0.69 0.70 0.69 0.70 0.68 0.67 0.67 0.66 0.62 0.60 0.65 0.64 0.56 0.44 0.36 0.31 0.31 0.33 0.35 0.40 0.47 0.52 0.58 0.55 0.48 0.52 0.59 0.82 1.32 1.95 2.35 2.49 2.47 2.42 2.21 1.94 1.72 1.56 1.50 1.53 1.60
0.80 0.85 0.78 0.72 0.71 0.69 0.71 0.72 0.71 0.71 0.71 0.67 0.69 0.74 0.68 0.59 0.46 0.35 0.32 0.34 0.37 0.45 0.57 0.62 0.68 0.70 0.63 0.54 0.45 0.50 0.70 1.21 1.91 2.44 2.59 2.58 2.62 2.44 2.10 1.84 1.73 1.76 1.83
0.74 0.81 0.85 0.79 0.74 0.71 0.69 0.67 0.67 0.67 0.70 0.65 0.62 0.82 0.87 0.64 0.42 0.32 0.30 0.30 0.31 0.33 0.38 0.45 0.53 0.59 0.66 0.66 0.57 0.50 0.53 0.75 1.29 2.05 2.60 2.71 2.75 2.85 2.65 2.22 1.95 1.88 1.93
0.78 0.75 0.82 0.84 0.82 0.78 0.73 0.68 0.66 0.66 0.72 0.74 0.65 0.61 0.65 0.64 0.63 0.45 0.29 0.27 0.27 0.27 0.27 0.28 0.34 0.40 0.51 0.63 0.70 0.67 0.63 0.65 0.95 1.48 2.19 2.79 2.93 3.07 3.20 2.84 2.37 2.11 2.01
0.89 0.80 0.77 0.81 0.82 0.82 0.80 0.75 0.70 0.71 0.74 0.77 0.75 0.64 0.57 0.50 0.52 0.61 0.43 0.31 0.30 0.27 0.27 0.27 0.29 0.31 0.35 0.46 0.58 0.68 0.75 0.73 0.89 1.19 1.62 2.36 3.03 3.30 3.49 3.37 2.86 2.39 2.13
0.98 0.95 0.82 0.79 0.81 0.81 0.83 0.80 0.74 0.73 0.75 0.75 0.74 0.71 0.71 0.68 0.56 0.59 0.54 0.38 0.35 0.32 0.33 0.33 0.33 0.32 0.34 0.37 0.45 0.61 0.70 0.75 0.82 0.96 1.15 1.61 2.44 3.18 3.47 3.43 3.14 2.74 2.34
1.09 0.98 0.93 0.84 0.82 0.80 0.81 0.82 0.82 0.76 0.72 0.77 0.79 0.75 0.70 0.66 0.60 0.66 0.73 0.61 0.49 0.40 0.39 0.38 0.36 0.37 0.38 0.39 0.44 0.50 0.56 0.66 0.75 0.83 0.87 0.99 1.42 2.34 3.22 3.56 3.33 2.97 2.68
1.11 1.00 0.95 0.89 0.83 0.84 0.86 0.85 0.83 0.81 0.77 0.74 0.73 0.73 0.71 0.66 0.66 0.72 0.82 0.90 0.81 0.55 0.44 0.41 0.38 0.38 0.41 0.44 0.47 0.51 0.47 0.55 0.64 0.74 0.82 0.88 0.99 1.38 2.21 3.22 3.84 3.56 3.06
1.22 1.15 1.06 1.00 0.93 0.91 0.90 0.90 0.87 0.82 0.82 0.82 0.79 0.76 0.76 0.70 0.69 0.72 0.78 0.92 1.11 0.92 0.51 0.34 0.36 0.39 0.40 0.46 0.55 0.52 0.47 0.52 0.59 0.67 0.75 0.84 0.93 1.04 1.38 2.07 3.09 3.84 3.76
1.32 1.33 1.27 1.20 1.10 1.06 1.03 1.00 0.95 0.87 0.85 0.85 0.87 0.84 0.82 0.79 0.76 0.77 0.80 0.81 0.89 0.98 0.74 0.37 0.34 0.39 0.46 0.48 0.57 0.54 0.54 0.61 0.63 0.65 0.70 0.75 0.84 0.98 1.14 1.43 2.06 3.06 3.72
1.38 1.44 1.47 1.42 1.33 1.23 1.19 1.18 1.12 1.05 1.00 0.92 0.91 0.91 0.88 0.84 0.84 0.80 0.80 0.78 0.76 0.84 0.86 0.45 0.35 0.41 0.52 0.57 0.61 0.61 0.62 0.61 0.59 0.63 0.70 0.75 0.80 0.91 1.06 1.25 1.53 2.17 3.10
1.35 1.40 1.58 1.60 1.53 1.43 1.34 1.35 1.35 1.26 1.21 1.12 1.06 1.03 0.99 0.97 1.00 0.94 0.89 0.83 0.76 0.75 0.86 0.70 0.44 0.43 0.53 0.64 0.72 0.73 0.71 0.68 0.64 0.72 0.76 0.77 0.80 0.86 0.99 1.16 1.36 1.67 2.30
1.31 1.40 1.57 1.70 1.66 1.62 1.52 1.40 1.46 1.56 1.52 1.43 1.34 1.31 1.25 1.20 1.21 1.16 1.08 0.96 0.84 0.77 0.80 0.80 0.61 0.50 0.56 0.69 0.85 0.87 0.84 0.80 0.72 0.79 0.82 0.83 0.84 0.85 0.92 1.07 1.25 1.45 1.72
1.26 1.43 1.55 1.71 1.79 1.84 1.91 1.81 1.71 1.63 1.61 1.60 1.55 1.52 1.54 1.51 1.46 1.40 1.36 1.16 0.99 0.93 0.89 0.91 0.79 0.64 0.64 0.73 0.98 1.08 1.06 0.98 0.91 0.83 0.85 0.86 0.89 0.90 0.89 0.93 1.03 1.19 1.44
1.27 1.40 1.51 1.64 1.69 1.89 2.34 2.45 2.03 1.54 1.40 1.41 1.38 1.36 1.45 1.59 1.65 1.66 1.65 1.47 1.31 1.28 1.21 1.18 1.04 0.88 0.80 0.89 1.08 1.17 1.24 1.18 1.18 1.01 0.86 0.81 0.82 0.82 0.83 0.89 0.98 1.08 1.27
1.26 1.38 1.43 1.45 1.50 1.71 2.24 2.38 1.88 1.44 1.26 1.24 1.24 1.19 1.20 1.34 1.42 1.49 1.61 1.62 1.65 1.71 1.65 1.50 1.32 1.14 0.95 0.90 1.03 1.31 1.43 1.52 1.54 1.23 1.06 0.98 0.87 0.88 0.88 0.87 0.93 0.97 1.14
1.19 1.24 1.28 1.26 1.27 1.46 1.92 2.00 1.71 1.39 1.21 1.10 1.08 1.08 1.07 1.11 1.21 1.14 1.25 1.39 1.49 1.67 1.78 1.75 1.66 1.33 1.08 1.00 1.18 1.43 1.54 1.62 1.53 1.36 1.36 1.42 1.18 1.05 0.98 0.99 1.02 0.96 1.06
1.14 1.11 1.11 1.10 1.10 1.23 1.69 1.87 1.71 1.40 1.29 1.18 1.11 1.01 0.97 0.97 1.12 1.18 1.22 1.22 1.18 1.30 1.54 1.69 1.76 1.54 1.32 1.27 1.49 1.73 1.87 1.89 1.73 1.62 1.59 1.72 1.43 1.23 1.15 1.10 1.08 0.99 1.00
1.00 0.99 0.98 1.03 1.00 1.06 1.52 1.92 1.84 1.46 1.44 1.35 1.24 1.16 1.06 0.94 1.17 1.30 1.22 1.14 1.04 1.08 1.24 1.51 1.68 1.69 1.67 1.72 1.87 2.11 2.24 2.29 2.17 1.86 1.72 1.80 1.65 1.43 1.38 1.38 1.27 1.14 1.02
0.86 0.88 0.85 0.90 0.91 0.96 1.30 1.83 1.97 1.51 1.42 1.34 1.27 1.24 1.31 1.23 1.30 1.26 1.12 1.14 1.16 1.03 1.00 1.09 1.17 1.26 1.28 1.32 1.60 1.84 2.01 2.20 2.17 2.16 1.85 1.80 1.82 1.76 1.91 1.63 1.36 1.12 0.99

GEFSMA_prec_meanprecacc_252.txt.gz
Total_Precipitation_Accumulation
0.65 0.60 0.61 0.60 0.55 0.53 0.53 0.54 0.55 0.53 0.51 0.47 0.42 0.39 0.39 0.41 0.37 0.31 0.27 0.25 0.24 0.27 0.40 0.61 0.91 1.23 1.45 1.54 1.53 1.36 1.27 1.13 0.97 0.89 0.85 0.91 0.92 0.90 0.94 1.06 1.04 0.93 0.91
0.61 0.56 0.52 0.52 0.48 0.43 0.40 0.41 0.41 0.42 0.42 0.40 0.35 0.31 0.32 0.36 0.36 0.34 0.34 0.34 0.29 0.28 0.32 0.45 0.67 0.98 1.33 1.58 1.66 1.59 1.43 1.33 1.17 1.00 0.93 0.92 0.96 0.95 0.94 1.00 1.08 1.05 0.95
0.63 0.61 0.56 0.52 0.49 0.47 0.46 0.44 0.44 0.43 0.40 0.37 0.33 0.29 0.28 0.28 0.32 0.34 0.36 0.37 0.38 0.36 0.35 0.41 0.54 0.78 1.17 1.54 1.75 1.85 1.70 1.50 1.37 1.22 1.02 0.92 0.94 0.98 0.98 1.01 1.09 1.16 1.13
0.65 0.63 0.60 0.56 0.56 0.56 0.57 0.54 0.49 0.46 0.43 0.39 0.36 0.33 0.31 0.28 0.26 0.29 0.34 0.35 0.36 0.36 0.35 0.38 0.50 0.71 0.99 1.34 1.68 1.95 2.04 1.83 1.68 1.59 1.38 1.14 0.99 1.00 1.04 1.06 1.12 1.21 1.29
0.68 0.64 0.62 0.63 0.65 0.69 0.67 0.63 0.58 0.51 0.47 0.43 0.41 0.39 0.35 0.32 0.30 0.30 0.31 0.35 0.37 0.35 0.35 0.37 0.43 0.55 0.76 1.09 1.55 1.96 2.32 2.33 2.12 1.97 1.79 1.56 1.30 1.13 1.14 1.14 1.18 1.27 1.38
0.73 0.69 0.67 0.67 0.71 0.74 0.73 0.69 0.63 0.57 0.54 0.52 0.52 0.49 0.42 0.36 0.33 0.31 0.30 0.33 0.35 0.36 0.36 0.40 0.44 0.43 0.49 0.68 1.02 1.53 2.01 2.38 2.42 2.30 2.18 1.98 1.75 1.52 1.39 1.33 1.29 1.38 1.50
0.83 0.79 0.71 0.71 0.70 0.71 0.69 0.68 0.68 0.67 0.63 0.62 0.66 0.65 0.57 0.46 0.38 0.33 0.33 0.34 0.35 0.40 0.47 0.52 0.58 0.55 0.48 0.52 0.59 0.82 1.32 1.96 2.36 2.50 2.49 2.43 2.22 1.96 1.74 1.58 1.52 1.56 1.63
0.88 0.92 0.82 0.75 0.73 0.70 0.72 0.74 0.72 0.72 0.73 0.68 0.70 0.75 0.68 0.60 0.48 0.36 0.33 0.34 0.38 0.45 0.57 0.62 0.69 0.70 0.63 0.54 0.45 0.51 0.71 1.22 1.92 2.46 2.61 2.60 2.64 2.46 2.12 1.86 1.75 1.79 1.85
0.82 0.91 0.94 0.84 0.78 0.73 0.70 0.68 0.69 0.68 0.71 0.66 0.63 0.83 0.89 0.65 0.43 0.33 0.30 0.30 0.31 0.33 0.38 0.45 0.53 0.59 0.66 0.66 0.57 0.51 0.53 0.76 1.30 2.06 2.61 2.73 2.77 2.87 2.67 2.24 1.97 1.91 1.96
0.86 0.83 0.91 0.90 0.86 0.82 0.75 0.69 0.67 0.67 0.73 0.75 0.66 0.62 0.66 0.65 0.64 0.45 0.29 0.27 0.27 0.27 0.27 0.29 0.34 0.40 0.51 0.63 0.70 0.67 0.63 0.66 0.95 1.49 2.21 2.80 2.95 3.10 3.22 2.86 2.40 2.13 2.04
0.94 0.86 0.84 0.87 0.86 0.84 0.83 0.77 0.71 0.72 0.75 0.78 0.75 0.65 0.58 0.51 0.53 0.62 0.43 0.31 0.30 0.27 0.27 0.27 0.29 0.31 0.35 0.46 0.58 0.69 0.76 0.74 0.89 1.20 1.63 2.37 3.05 3.31 3.51 3.40 2.89 2.41 2.16
1.01 0.98 0.86 0.85 0.86 0.85 0.85 0.82 0.76 0.74 0.76 0.76 0.74 0.71 0.72 0.69 0.56 0.60 0.55 0.39 0.35 0.32 0.33 0.33 0.33 0.32 0.34 0.37 0.46 0.62 0.71 0.76 0.83 0.98 1.16 1.62 2.45 3.19 3.48 3.45 3.16 2.76 2.37
1.12 1.01 0.96 0.87 0.86 0.85 0.83 0.83 0.83 0.77 0.73 0.78 0.80 0.75 0.70 0.66 0.61 0.66 0.74 0.61 0.50 0.40 0.39 0.39 0.36 0.37 0.38 0.40 0.45 0.52 0.57 0.67 0.77 0.86 0.90 1.02 1.44 2.37 3.25 3.59 3.38 3.02 2.72
1.14 1.03 0.98 0.91 0.86 0.87 0.89 0.87 0.85 0.82 0.77 0.75 0.74 0.73 0.71 0.66 0.67 0.73 0.83 0.91 0.81 0.55 0.45 0.41 0.38 0.39 0.41 0.45 0.48 0.52 0.48 0.56 0.65 0.77 0.87 0.95 1.06 1.43 2.25 3.27 3.88 3.59 3.08
1.24 1.17 1.09 1.04 0.96 0.94 0.93 0.91 0.88 0.83 0.82 0.82 0.80 0.76 0.76 0.70 0.69 0.73 0.78 0.93 1.12 0.93 0.51 0.34 0.36 0.39 0.41 0.47 0.55 0.53 0.48 0.53 0.60 0.69 0.78 0.89 0.96 1.06 1.39 2.09 3.11 3.85 3.77
1.36 1.36 1.30 1.25 1.14 1.09 1.05 1.01 0.96 0.87 0.86 0.86 0.87 0.84 0.82 0.79 0.76 0.77 0.80 0.82 0.89 0.99 0.75 0.37 0.34 0.39 0.46 0.48 0.57 0.54 0.54 0.62 0.64 0.67 0.73 0.78 0.86 0.99 1.15 1.44 2.07 3.07 3.73
1.40 1.46 1.50 1.45 1.37 1.27 1.23 1.20 1.14 1.06 1.01 0.93 0.92 0.92 0.88 0.84 0.84 0.80 0.81 0.78 0.76 0.84 0.86 0.45 0.35 0.41 0.52 0.57 0.61 0.61 0.62 0.61 0.59 0.64 0.71 0.76 0.80 0.92 1.06 1.26 1.54 2.18 3.11
1.37 1.42 1.60 1.64 1.57 1.47 1.37 1.38 1.37 1.28 1.22 1.14 1.06 1.03 0.99 0.97 1.00 0.94 0.89 0.83 0.76 0.75 0.86 0.70 0.44 0.43 0.53 0.64 0.72 0.74 0.71 0.68 0.64 0.72 0.76 0.78 0.80 0.86 1.00 1.17 1.37 1.68 2.31
1.34 1.43 1.59 1.73 1.69 1.65 1.55 1.43 1.48 1.58 1.53 1.43 1.34 1.31 1.25 1.20 1.21 1.16 1.08 0.96 0.85 0.78 0.80 0.81 0.61 0.50 0.56 0.69 0.85 0.87 0.85 0.80 0.72 0.79 0.83 0.84 0.85 0.86 0.92 1.07 1.26 1.46 1.73
1.28 1.46 1.57 1.73 1.80 1.86 1.94 1.83 1.73 1.64 1.62 1.61 1.56 1.53 1.55 1.51 1.46 1.40 1.36 1.16 0.99 0.93 0.89 0.91 0.79 0.65 0.64 0.73 0.98 1.09 1.07 0.99 0.92 0.83 0.85 0.87 0.90 0.90 0.90 0.94 1.04 1.20 1.45
1.29 1.42 1.53 1.65 1.70 1.90 2.36 2.46 2.05 1.56 1.41 1.41 1.38 1.37 1.45 1.59 1.65 1.66 1.65 1.47 1.32 1.29 1.21 1.18 1.05 0.88 0.80 0.89 1.08 1.17 1.24 1.19 1.18 1.02 0.87 0.81 0.82 0.82 0.83 0.89 0.98 1.09 1.28
1.27 1.39 1.45 1.47 1.52 1.72 2.26 2.40 1.90 1.45 1.27 1.25 1.25 1.19 1.21 1.34 1.42 1.49 1.61 1.62 1.65 1.71 1.66 1.51 1.32 1.14 0.95 0.90 1.03 1.31 1.44 1.53 1.54 1.24 1.07 0.99 0.87 0.88 0.88 0.88 0.93 0.98 1.15
1.20 1.25 1.29 1.27 1.28 1.47 1.93 2.01 1.72 1.40 1.22 1.10 1.09 1.08 1.08 1.11 1.21 1.14 1.25 1.39 1.50 1.67 1.79 1.75 1.67 1.33 1.09 1.00 1.19 1.44 1.55 1.63 1.54 1.37 1.36 1.42 1.19 1.05 0.99 0.99 1.02 0.97 1.07
1.15 1.12 1.12 1.11 1.11 1.24 1.70 1.88 1.73 1.41 1.30 1.19 1.12 1.01 0.97 0.97 1.12 1.18 1.22 1.22 1.18 1.30 1.54 1.69 1.76 1.55 1.32 1.28 1.50 1.74 1.88 1.90 1.73 1.62 1.59 1.72 1.43 1.24 1.16 1.11 1.09 1.00 1.01
1.01 1.00 0.99 1.05 1.01 1.07 1.52 1.93 1.85 1.48 1.45 1.36 1.25 1.16 1.06 0.94 1.18 1.30 1.22 1.14 1.04 1.09 1.24 1.51 1.68 1.69 1.68 1.72 1.87 2.12 2.25 2.30 2.17 1.86 1.72 1.81 1.65 1.44 1.38 1.38 1.28 1.15 1.02
0.86 0.89 0.86 0.91 0.91 0.97 1.31 1.84 1.97 1.51 1.43 1.34 1.27 1.24 1.31 1.24 1.31 1.27 1.12 1.14 1.16 1.03 1.00 1.09 1.17 1.26 1.28 1.33 1.61 1.84 2.02 2.22 2.19 2.17 1.86 1.81 1.83 1.77 1.92 1.64 1.36 1.13 1.00

GEFSMA_prec_meanprecacc_258.txt.gz
Total_Precipitation_Accumulation
0.65 0.61 0.61 0.60 0.55 0.54 0.54 0.55 0.57 0.56 0.52 0.48 0.43 0.39 0.39 0.41 0.37 0.31 0.27 0.25 0.24 0.28 0.40 0.61 0.92 1.23 1.45 1.54 1.54 1.37 1.27 1.13 0.98 0.89 0.85 0.91 0.93 0.91 0.95 1.07 1.05 0.95 0.93
0.61 0.56 0.52 0.52 0.48 0.43 0.41 0.42 0.43 0.46 0.48 0.44 0.37 0.32 0.33 0.36 0.36 0.34 0.34 0.34 0.30 0.28 0.33 0.46 0.68 0.99 1.34 1.58 1.66 1.59 1.44 1.34 1.17 1.01 0.93 0.93 0.97 0.96 0.95 1.00 1.09 1.07 0.97
0.64 0.62 0.56 0.52 0.49 0.47 0.47 0.45 0.45 0.44 0.42 0.41 0.38 0.34 0.30 0.29 0.32 0.34 0.36 0.38 0.38 0.36 0.35 0.42 0.54 0.78 1.18 1.55 1.75 1.86 1.70 1.51 1.38 1.23 1.03 0.93 0.95 0.99 0.99 1.02 1.10 1.17 1.14
0.68 0.64 0.60 0.56 0.56 0.56 0.57 0.55 0.49 0.47 0.44 0.40 0.38 0.35 0.33 0.29 0.27 0.29 0.34 0.36 0.36 0.36 0.35 0.38 0.50 0.71 0.99 1.34 1.68 1.95 2.04 1.83 1.69 1.60 1.39 1.15 1.00 1.01 1.05 1.07 1.13 1.22 1.30
0.77 0.67 0.63 0.63 0.65 0.69 0.67 0.63 0.58 0.51 0.47 0.44 0.43 0.40 0.36 0.33 0.31 0.31 0.31 0.35 0.37 0.36 0.35 0.37 0.43 0.55 0.76 1.09 1.56 1.97 2.33 2.34 2.13 1.99 1.80 1.57 1.31 1.14 1.16 1.15 1.19 1.29 1.40
0.85 0.78 0.71 0.70 0.73 0.74 0.73 0.70 0.63 0.58 0.54 0.52 0.52 0.50 0.43 0.36 0.33 0.32 0.31 0.33 0.35 0.36 0.36 0.40 0.44 0.43 0.49 0.68 1.03 1.53 2.02 2.39 2.42 2.31 2.19 1.99 1.76 1.54 1.40 1.34 1.31 1.40 1.52
0.93 0.89 0.78 0.75 0.72 0.73 0.70 0.68 0.68 0.67 0.63 0.62 0.66 0.65 0.57 0.46 0.39 0.34 0.34 0.35 0.36 0.40 0.47 0.52 0.58 0.55 0.48 0.52 0.59 0.82 1.32 1.97 2.36 2.51 2.50 2.45 2.24 1.98 1.76 1.60 1.54 1.58 1.65
0.99 1.02 0.90 0.81 0.77 0.73 0.74 0.75 0.72 0.73 0.73 0.68 0.70 0.75 0.69 0.61 0.48 0.36 0.34 0.35 0.39 0.46 0.57 0.63 0.69 0.70 0.63 0.54 0.45 0.51 0.71 1.23 1.93 2.47 2.62 2.61 2.65 2.47 2.14 1.88 1.77 1.81 1.87
0.92 1.01 1.03 0.92 0.84 0.78 0.73 0.71 0.70 0.69 0.71 0.66 0.63 0.83 0.89 0.66 0.44 0.33 0.30 0.31 0.32 0.34 0.38 0.46 0.53 0.59 0.66 0.66 0.57 0.51 0.54 0.76 1.31 2.08 2.63 2.74 2.78 2.89 2.69 2.26 2.00 1.93 1.98
0.95 0.92 0.99 0.99 0.94 0.89 0.81 0.72 0.69 0.68 0.73 0.76 0.66 0.62 0.66 0.65 0.64 0.45 0.29 0.27 0.27 0.28 0.27 0.29 0.34 0.40 0.52 0.63 0.70 0.68 0.64 0.66 0.96 1.50 2.22 2.82 2.96 3.11 3.25 2.90 2.43 2.15 2.06
1.05 0.97 0.94 0.97 0.96 0.93 0.91 0.83 0.75 0.74 0.76 0.79 0.76 0.66 0.58 0.51 0.53 0.62 0.43 0.32 0.30 0.28 0.27 0.27 0.30 0.31 0.36 0.46 0.58 0.69 0.76 0.74 0.90 1.21 1.64 2.38 3.07 3.34 3.54 3.43 2.92 2.44 2.18
1.10 1.08 0.98 0.98 0.98 0.95 0.94 0.91 0.83 0.79 0.79 0.78 0.76 0.72 0.73 0.69 0.57 0.60 0.55 0.39 0.35 0.32 0.33 0.34 0.34 0.33 0.34 0.38 0.46 0.62 0.72 0.77 0.84 0.99 1.18 1.63 2.48 3.23 3.52 3.49 3.21 2.80 2.39
1.22 1.11 1.06 0.98 0.98 0.96 0.94 0.93 0.92 0.87 0.80 0.82 0.83 0.78 0.72 0.67 0.62 0.67 0.75 0.62 0.51 0.41 0.40 0.39 0.37 0.37 0.38 0.40 0.45 0.52 0.57 0.68 0.78 0.88 0.92 1.05 1.48 2.41 3.30 3.65 3.44 3.08 2.77
1.24 1.13 1.08 1.00 0.94 0.96 0.97 0.93 0.90 0.88 0.85 0.80 0.78 0.77 0.74 0.68 0.68 0.74 0.83 0.91 0.82 0.57 0.47 0.43 0.39 0.39 0.41 0.45 0.49 0.52 0.49 0.57 0.66 0.78 0.89 0.98 1.11 1.50 2.32 3.33 3.93 3.62 3.11
1.35 1.26 1.17 1.12 1.03 1.00 0.99 0.97 0.92 0.86 0.87 0.87 0.83 0.79 0.80 0.72 0.71 0.73 0.79 0.93 1.12 0.94 0.53 0.37 0.38 0.41 0.42 0.47 0.56 0.53 0.48 0.54 0.61 0.69 0.79 0.90 0.98 1.09 1.42 2.12 3.13 3.88 3.81
1.45 1.46 1.37 1.30 1.21 1.16 1.12 1.07 1.01 0.91 0.89 0.89 0.90 0.88 0.86 0.81 0.77 0.77 0.81 0.82 0.89 1.00 0.76 0.38 0.35 0.41 0.48 0.50 0.58 0.55 0.55 0.63 0.64 0.67 0.73 0.78 0.86 1.00 1.15 1.45 2.07 3.08 3.75
1.47 1.53 1.56 1.49 1.41 1.31 1.27 1.24 1.17 1.09 1.03 0.95 0.95 0.95 0.91 0.85 0.85 0.80 0.81 0.78 0.76 0.84 0.86 0.46 0.36 0.42 0.53 0.58 0.62 0.62 0.63 0.62 0.60 0.65 0.71 0.77 0.81 0.92 1.07 1.26 1.55 2.19 3.12
1.42 1.46 1.63 1.66 1.60 1.49 1.39 1.40 1.40 1.31 1.25 1.16 1.08 1.05 1.01 0.98 1.00 0.94 0.89 0.83 0.76 0.75 0.86 0.70 0.44 0.44 0.53 0.64 0.72 0.74 0.72 0.69 0.65 0.73 0.77 0.78 0.81 0.87 1.01 1.18 1.38 1.69 2.31
1.37 1.46 1.62 1.75 1.71 1.66 1.57 1.44 1.49 1.59 1.55 1.46 1.37 1.34 1.26 1.21 1.22 1.16 1.09 0.96 0.85 0.78 0.80 0.81 0.61 0.50 0.56 0.69 0.85 0.87 0.85 0.80 0.73 0.80 0.83 0.84 0.85 0.86 0.93 1.08 1.27 1.46 1.74
1.30 1.48 1.59 1.75 1.82 1.87 1.95 1.84 1.74 1.66 1.66 1.65 1.59 1.54 1.56 1.52 1.47 1.40 1.36 1.16 0.99 0.93 0.89 0.91 0.79 0.65 0.64 0.73 0.98 1.09 1.07 0.99 0.92 0.83 0.86 0.87 0.90 0.91 0.90 0.94 1.04 1.21 1.46
1.30 1.43 1.54 1.67 1.72 1.93 2.38 2.49 2.09 1.60 1.44 1.44 1.41 1.38 1.46 1.60 1.66 1.67 1.66 1.47 1.32 1.29 1.21 1.18 1.05 0.88 0.80 0.89 1.08 1.17 1.25 1.19 1.19 1.02 0.87 0.81 0.82 0.82 0.84 0.90 0.99 1.10 1.28
1.28 1.40 1.45 1.47 1.53 1.74 2.28 2.42 1.92 1.48 1.29 1.27 1.27 1.20 1.22 1.35 1.43 1.49 1.61 1.63 1.65 1.72 1.66 1.51 1.33 1.15 0.95 0.90 1.04 1.32 1.44 1.53 1.55 1.24 1.07 0.99 0.87 0.88 0.89 0.88 0.94 0.98 1.15
1.21 1.26 1.30 1.28 1.29 1.48 1.94 2.03 1.74 1.41 1.24 1.12 1.10 1.09 1.08 1.11 1.22 1.15 1.26 1.39 1.50 1.67 1.79 1.76 1.67 1.34 1.09 1.01 1.19 1.44 1.55 1.63 1.54 1.37 1.36 1.43 1.19 1.05 0.99 1.00 1.03 0.97 1.07
1.16 1.13 1.13 1.11 1.12 1.25 1.72 1.90 1.75 1.43 1.32 1.20 1.12 1.02 0.97 0.97 1.12 1.19 1.22 1.22 1.18 1.30 1.55 1.69 1.76 1.55 1.33 1.29 1.51 1.75 1.88 1.90 1.74 1.62 1.59 1.72 1.44 1.24 1.16 1.11 1.09 1.01 1.02
1.02 1.01 1.00 1.05 1.02 1.08 1.54 1.95 1.87 1.49 1.47 1.37 1.26 1.17 1.07 0.95 1.18 1.30 1.22 1.14 1.04 1.09 1.25 1.51 1.68 1.70 1.68 1.73 1.88 2.12 2.26 2.31 2.18 1.86 1.72 1.81 1.65 1.44 1.38 1.38 1.28 1.16 1.03
0.87 0.90 0.87 0.92 0.92 0.98 1.33 1.85 1.99 1.52 1.44 1.35 1.28 1.24 1.32 1.24 1.31 1.27 1.12 1.14 1.16 1.03 1.00 1.09 1.17 1.27 1.28 1.33 1.61 1.85 2.03 2.23 2.20 2.18 1.86 1.82 1.84 1.78 1.93 1.64 1.37 1.13 1.00